Time[GMT],gps_lat[degrees_north](-3m),gps_lon[degrees_west](-3m),gps_2_lat[degrees_north](-3m),gps_2_lon[degrees_west](-3m)
2021-06-15 01:00,44.055500031,-68.997200012,44.07,-69.00
2021-06-15 02:00,44.055583954,-68.997200012,44.06,-69.00
2021-06-15 03:00,44.055648804,-68.997215271,44.06,-69.00
2021-06-15 04:00,44.055633545,-68.997215271,44.06,-69.00
2021-06-15 05:00,44.055618286,-68.997184753,44.06,-69.00
2021-06-15 06:00,44.055515289,-68.997184753,44.06,-69.00
2021-06-15 07:00,44.055648804,-68.997146606,44.06,-69.00
2021-06-15 08:00,44.055416107,-68.997169495,44.06,-69.00
2021-06-15 09:00,44.055233002,-68.997200012,44.06,-69.00
2021-06-15 10:00,44.055049896,-68.997032166,44.06,-69.00
2021-06-15 11:00,44.055049896,-68.997032166,44.06,-69.00
2021-06-15 12:00,44.055149078,-68.997085571,44.06,-69.00
2021-06-15 13:00,44.055133820,-68.997070312,44.06,-69.00
2021-06-15 14:00,44.055248260,-68.997070312,44.06,-69.00
2021-06-15 15:00,44.055366516,-68.997085571,44.06,-69.00
2021-06-15 16:00,44.055435181,-68.997100830,44.06,-69.00
2021-06-15 17:00,44.055400848,-68.997085571,44.06,-69.00
2021-06-15 18:00,44.055465698,-68.997184753,44.06,-69.00
2021-06-15 19:00,44.055400848,-68.997131348,44.06,-69.00
2021-06-15 20:00,44.055332184,-68.997085571,44.06,-69.00
2021-06-15 21:00,44.055217743,-68.997070312,44.06,-69.00
2021-06-15 22:00,44.055049896,-68.997146606,44.06,-69.00
2021-06-15 23:00,44.055149078,-68.997070312,44.06,-69.00
2021-06-16 00:00,44.055118561,-68.997032166,44.06,-69.00
2021-06-16 01:00,44.055183411,-68.997047424,44.06,-69.00
2021-06-16 02:00,44.055217743,-68.997016907,44.06,-69.00
2021-06-16 03:00,44.055301666,-68.997047424,44.06,-69.00
2021-06-16 04:00,44.055500031,-68.997085571,44.06,-69.00
2021-06-16 05:00,44.055534363,-68.997100830,44.06,-69.00
2021-06-16 06:00,44.055484772,-68.997085571,44.06,-69.00
2021-06-16 07:00,44.055465698,-68.997047424,44.06,-69.00
2021-06-16 08:00,44.055484772,-68.997047424,44.06,-69.00
2021-06-16 09:00,44.055233002,-68.996932983,44.06,-69.00
2021-06-16 10:00,44.054851532,-68.996818542,44.06,-69.00
2021-06-16 11:00,44.054599762,-68.996765137,44.05,-69.00
2021-06-16 12:00,44.054401398,-68.996681213,44.05,-69.00
2021-06-16 13:00,44.054466248,-68.996765137,44.05,-69.00
2021-06-16 14:00,44.054565430,-68.996818542,44.05,-68.98
2021-06-16 15:00,44.054634094,-68.996864319,44.05,-69.00
2021-06-16 16:00,44.054698944,-68.996765137,44.05,-69.00
2021-06-16 17:00,44.054931641,-68.996849060,44.05,-69.00
2021-06-16 18:00,44.054901123,-68.996963501,44.05,-69.00
2021-06-16 19:00,44.054901123,-68.996864319,44.05,-69.00
2021-06-16 20:00,44.054985046,-68.996818542,44.05,-69.00
2021-06-16 21:00,44.054882050,-68.996765137,44.05,-69.00
2021-06-16 22:00,44.054515839,-68.996749878,44.05,-69.00
2021-06-16 23:00,44.054450989,-68.996650696,44.05,-69.00
2021-06-17 00:00,44.054416656,-68.996696472,44.05,-69.00
2021-06-17 01:00,44.054450989,-68.996681213,44.05,-69.00
2021-06-17 02:00,44.054565430,-68.996719360,44.05,-69.00
2021-06-17 03:00,44.054615021,-68.996749878,44.05,-69.00
2021-06-17 04:00,44.054798126,-68.996681213,44.05,-69.00
2021-06-17 05:00,44.054950714,-68.996818542,44.05,-69.00
2021-06-17 06:00,44.055000305,-68.996864319,44.06,-69.00
2021-06-17 07:00,44.054916382,-68.996734619,44.06,-69.00
2021-06-17 08:00,44.054668427,-68.996749878,44.05,-69.00
2021-06-17 09:00,44.054550171,-68.996803284,44.05,-69.00
2021-06-17 10:00,44.054550171,-68.996734619,44.05,-69.00
2021-06-17 11:00,44.054466248,-68.996734619,44.05,-69.00
2021-06-17 12:00,44.054466248,-68.996681213,44.05,-69.00
2021-06-17 13:00,44.054450989,-68.996719360,44.05,-69.00
2021-06-17 14:00,44.054534912,-68.996749878,44.05,-69.00
2021-06-17 15:00,44.054615021,-68.996818542,44.05,-69.00
2021-06-17 16:00,44.054882050,-68.996597290,44.05,-69.00
2021-06-17 17:00,44.055118561,-68.996719360,44.06,-69.00
2021-06-17 18:00,44.055149078,-68.996818542,44.06,-69.00
2021-06-17 19:00,44.055316925,-68.996635437,44.06,-69.00
2021-06-17 20:00,44.055198669,-68.996696472,44.06,-69.00
2021-06-17 21:00,44.055049896,-68.996620178,44.06,-69.00
2021-06-17 22:00,44.054916382,-68.996635437,44.06,-69.00
2021-06-17 23:00,44.054748535,-68.996414185,44.05,-69.00
2021-06-18 00:00,44.054668427,-68.996582031,44.05,-69.00
2021-06-18 01:00,44.054649353,-68.996566772,44.05,-69.00
2021-06-18 02:00,44.054668427,-68.996582031,44.05,-69.00
2021-06-18 03:00,44.054748535,-68.996719360,44.05,-69.00
2021-06-18 04:00,44.054882050,-68.996734619,44.05,-69.00
2021-06-18 05:00,44.055034637,-68.996734619,44.05,-69.00
2021-06-18 06:00,44.055133820,-68.996803284,44.06,-69.00
2021-06-18 07:00,44.055133820,-68.996803284,44.06,-69.00
2021-06-18 08:00,44.055065155,-68.996849060,44.06,-69.00
2021-06-18 09:00,44.055000305,-68.996879578,44.06,-69.00
2021-06-18 10:00,44.054931641,-68.996818542,44.05,-69.00
2021-06-18 11:00,44.054851532,-68.996780396,44.05,-69.00
2021-06-18 12:00,44.054584503,-68.996818542,44.05,-69.00
2021-06-18 13:00,44.054615021,-68.996734619,44.05,-69.00
2021-06-18 14:00,44.054668427,-68.996749878,44.05,-69.00
2021-06-18 15:00,44.054767609,-68.996765137,44.05,-69.00
2021-06-18 16:00,44.054866791,-68.996849060,44.05,-69.00
2021-06-18 17:00,44.055034637,-68.996765137,44.05,-69.00
2021-06-18 18:00,44.055198669,-68.996749878,44.06,-69.00
2021-06-18 19:00,44.055282593,-68.996833801,44.06,-69.00
2021-06-18 20:00,44.055168152,-68.996803284,44.06,-69.00
2021-06-18 21:00,44.055084229,-68.996818542,44.06,-69.00
2021-06-18 22:00,44.055065155,-68.996849060,44.06,-69.00
2021-06-18 23:00,44.055000305,-68.996818542,44.05,-69.00
2021-06-19 00:00,44.054832458,-68.996765137,44.05,-69.00
2021-06-19 01:00,44.054634094,-68.996780396,44.05,-69.00
2021-06-19 02:00,44.054733276,-68.996696472,44.05,-69.00
2021-06-19 03:00,44.054733276,-68.996650696,44.05,-69.00
2021-06-19 04:00,44.054901123,-68.996719360,44.05,-69.00
2021-06-19 05:00,44.055034637,-68.996765137,44.05,-69.00
2021-06-19 06:00,44.055183411,-68.996765137,44.06,-69.00
2021-06-19 07:00,44.055217743,-68.996765137,44.06,-69.00
2021-06-19 08:00,44.055217743,-68.996780396,44.06,-69.00
2021-06-19 09:00,44.055168152,-68.996765137,44.06,-69.00
2021-06-19 10:00,44.055168152,-68.996849060,44.06,-69.00
2021-06-19 11:00,44.055049896,-68.996719360,44.06,-69.00
2021-06-19 12:00,44.055000305,-68.996681213,44.06,-69.00
2021-06-19 13:00,44.054733276,-68.996566772,44.06,-69.00
2021-06-19 14:00,44.054733276,-68.996513367,44.05,-69.00
2021-06-19 15:00,44.054782867,-68.996482849,44.05,-69.00
2021-06-19 16:00,44.054950714,-68.996482849,44.05,-69.00
2021-06-19 17:00,44.055015564,-68.996620178,44.06,-69.00
2021-06-19 18:00,44.055099487,-68.996650696,44.06,-69.00
2021-06-19 19:00,44.055282593,-68.996719360,44.06,-69.00
2021-06-19 20:00,44.055301666,-68.996749878,44.06,-69.00
2021-06-19 21:00,44.055217743,-68.996803284,44.06,-69.00
2021-06-19 22:00,44.055084229,-68.996963501,44.06,-69.00
2021-06-19 23:00,44.055015564,-68.997032166,44.06,-69.00
2021-06-20 00:00,44.055000305,-68.997016907,44.06,-69.00
2021-06-20 01:00,44.054798126,-68.996879578,44.05,-69.00
2021-06-20 02:00,44.054748535,-68.996948242,44.05,-69.00
2021-06-20 03:00,44.054798126,-68.996902466,44.05,-69.00
2021-06-20 04:00,44.054851532,-68.996833801,44.05,-69.00
2021-06-20 05:00,44.054916382,-68.996803284,44.05,-69.00
2021-06-20 06:00,44.054985046,-68.996849060,44.05,-69.00
2021-06-20 07:00,44.055149078,-68.996864319,44.06,-69.00
2021-06-20 08:00,44.055000305,-68.996597290,44.06,-69.00
2021-06-20 09:00,44.055198669,-68.996917725,44.06,-69.00
2021-06-20 10:00,44.055198669,-68.996902466,44.06,-69.00
2021-06-20 11:00,44.055099487,-68.996818542,44.06,-69.00
2021-06-20 12:00,44.054950714,-68.996803284,44.06,-69.00
2021-06-20 13:00,44.054817200,-68.996635437,44.05,-69.00
2021-06-20 14:00,44.054668427,-68.996635437,44.05,-69.00
2021-06-20 15:00,44.054515839,-68.996650696,44.05,-69.00
2021-06-20 16:00,44.054698944,-68.996498108,44.05,-69.00
2021-06-20 17:00,44.054866791,-68.996566772,44.05,-69.00
2021-06-20 18:00,44.054965973,-68.996665955,44.05,-69.00
2021-06-20 19:00,44.055183411,-68.996696472,44.06,-69.00
2021-06-20 20:00,44.055248260,-68.996749878,44.06,-69.00
2021-06-20 21:00,44.055233002,-68.996833801,44.06,-69.00
2021-06-20 22:00,44.055267334,-68.996803284,44.06,-69.00
2021-06-20 23:00,44.055183411,-68.996879578,44.06,-69.00
2021-06-21 00:00,44.055099487,-68.996902466,44.06,-69.00
2021-06-21 01:00,44.054931641,-68.996849060,44.06,-69.00
2021-06-21 02:00,44.054817200,-68.996780396,44.05,-69.00
2021-06-21 03:00,44.054634094,-68.996833801,44.05,-69.00
2021-06-21 04:00,44.054615021,-68.996765137,44.05,-69.00
2021-06-21 05:00,44.054683685,-68.996818542,44.05,-69.00
2021-06-21 06:00,44.054683685,-68.996780396,44.05,-69.00
2021-06-21 07:00,44.054832458,-68.996833801,44.05,-69.00
2021-06-21 08:00,44.055049896,-68.996932983,44.05,-69.00
2021-06-21 09:00,44.055248260,-68.996948242,44.06,-69.00
2021-06-21 10:00,44.055282593,-68.997001648,44.06,-69.00
2021-06-21 11:00,44.055233002,-68.996963501,44.06,-69.00
2021-06-21 12:00,44.055133820,-68.996917725,44.06,-69.00
2021-06-21 13:00,44.055065155,-68.996902466,44.06,-69.00
2021-06-21 14:00,44.054965973,-68.996833801,44.06,-69.00
2021-06-21 15:00,44.054698944,-68.996765137,44.05,-69.00
2021-06-21 16:00,44.054698944,-68.996803284,44.05,-69.00
2021-06-21 17:00,44.054718018,-68.996719360,44.05,-69.00
2021-06-21 18:00,44.054832458,-68.996765137,44.05,-69.00
2021-06-21 19:00,44.054866791,-68.996879578,44.05,-69.00
2021-06-21 20:00,44.055133820,-68.997032166,44.05,-69.00
2021-06-21 21:00,44.055198669,-68.997070312,44.05,-69.00
2021-06-21 22:00,44.055400848,-68.997047424,44.06,-69.00
2021-06-21 23:00,44.055366516,-68.997016907,44.06,-69.00
2021-06-22 00:00,44.055282593,-68.996917725,44.06,-69.00
2021-06-22 01:00,44.055282593,-68.996803284,44.06,-69.00
2021-06-22 02:00,44.055282593,-68.996749878,44.06,-69.00
2021-06-22 03:00,44.054798126,-68.996452332,44.06,-69.00
2021-06-22 04:00,44.054565430,-68.995864868,44.05,-69.00
2021-06-22 05:00,44.053966522,-68.995552063,44.05,-69.00
2021-06-22 06:00,44.054668427,-68.996551514,44.05,-69.00
2021-06-22 07:00,44.054851532,-68.996734619,44.05,-69.00
2021-06-22 08:00,44.054782867,-68.996749878,44.05,-69.00
2021-06-22 09:00,44.055198669,-68.996635437,44.05,-69.00
2021-06-22 10:00,44.055316925,-68.996932983,44.06,-69.00
2021-06-22 11:00,44.055282593,-68.996879578,44.06,-69.00
2021-06-22 12:00,44.055435181,-68.997116089,44.06,-69.00
2021-06-22 13:00,44.055465698,-68.997535706,44.06,-69.00
2021-06-22 14:00,44.055183411,-68.997032166,44.06,-69.00
2021-06-22 15:00,44.054985046,-68.997001648,44.06,-69.00
2021-06-22 16:00,44.054866791,-68.996864319,44.06,-69.00
2021-06-22 17:00,44.054817200,-68.996879578,44.05,-69.00
2021-06-22 18:00,44.054882050,-68.996917725,44.05,-69.00
2021-06-22 19:00,44.055000305,-68.996803284,44.05,-69.00
2021-06-22 20:00,44.054965973,-68.996932983,44.05,-69.00
2021-06-22 21:00,44.055118561,-68.996902466,44.05,-69.00
2021-06-22 22:00,44.055248260,-68.996986389,44.06,-69.00
2021-06-22 23:00,44.055416107,-68.997032166,44.06,-69.00
2021-06-23 00:00,44.055267334,-68.996963501,44.06,-69.00
2021-06-23 01:00,44.055198669,-68.996917725,44.06,-69.00
2021-06-23 02:00,44.054748535,-68.996864319,44.06,-69.00
2021-06-23 03:00,44.054782867,-68.996963501,44.05,-69.00
2021-06-23 04:00,44.054634094,-68.996765137,44.05,-69.00
2021-06-23 05:00,44.054466248,-68.996734619,44.05,-69.00
2021-06-23 06:00,44.054466248,-68.996803284,44.05,-69.00
2021-06-23 07:00,44.054481506,-68.996864319,44.05,-69.00
2021-06-23 08:00,44.054565430,-68.996917725,44.05,-69.00
2021-06-23 09:00,44.054615021,-68.996879578,44.05,-69.00
2021-06-23 10:00,44.055000305,-68.996833801,44.05,-69.00
2021-06-23 13:00,,,,
2021-06-23 14:00,44.054985046,-68.996879578,44.06,-69.00
2021-06-23 15:00,44.054866791,-68.996765137,44.05,-69.00
2021-06-23 16:00,44.054718018,-68.996635437,44.05,-69.00
2021-06-23 17:00,44.054450989,-68.996849060,44.05,-69.00
2021-06-23 18:00,44.054466248,-68.996948242,44.05,-69.00
2021-06-23 19:00,44.054565430,-68.996932983,44.05,-69.00
2021-06-23 20:00,44.054832458,-68.996902466,44.05,-69.00
2021-06-23 21:00,44.054901123,-68.996719360,44.05,-69.00
2021-06-23 22:00,44.055015564,-68.996749878,44.05,-69.00
2021-06-23 23:00,44.055316925,-68.996765137,44.06,-69.00
2021-06-24 00:00,44.055351257,-68.996818542,44.06,-69.00
2021-06-24 01:00,44.055149078,-68.996734619,,
2021-06-24 02:00,44.055099487,-68.996803284,44.06,-69.00
2021-06-24 03:00,44.054599762,-68.997001648,,
2021-06-24 04:00,44.054748535,-68.996597290,44.05,-69.00
2021-06-24 05:00,44.054534912,-68.996765137,44.05,-69.00
2021-06-24 06:00,44.054500580,-68.996833801,,
2021-06-24 07:00,44.054534912,-68.996864319,,
2021-06-24 08:00,44.054668427,-68.996803284,,
2021-06-24 09:00,44.054683685,-68.996765137,,
2021-06-24 10:00,44.054767609,-68.996765137,,
2021-06-24 11:00,44.055065155,-68.996879578,44.05,-69.00
2021-06-24 12:00,44.055416107,-68.997100830,44.06,-69.00
2021-06-24 13:00,44.055484772,-68.997436523,44.06,-69.00
2021-06-24 14:00,44.055168152,-68.996833801,44.06,-69.00
2021-06-24 15:00,44.055149078,-68.996902466,44.06,-69.00
2021-06-24 16:00,44.055065155,-68.996879578,44.06,-69.00
2021-06-24 17:00,44.054832458,-68.996719360,44.06,-69.00
2021-06-24 18:00,44.054698944,-68.996917725,44.05,-69.00
2021-06-24 19:00,44.054565430,-68.996849060,44.05,-69.00
2021-06-24 20:00,44.054634094,-68.996765137,44.05,-69.00
2021-06-24 21:00,44.054634094,-68.996696472,44.05,-69.00
2021-06-24 22:00,44.054718018,-68.996734619,44.05,-69.00
2021-06-24 23:00,44.055133820,-68.996932983,44.05,-69.00
2021-06-25 00:00,44.055282593,-68.996986389,44.06,-69.00
2021-06-25 01:00,44.055316925,-68.996864319,44.06,-69.00
2021-06-25 02:00,44.055351257,-68.996917725,44.06,-69.00
2021-06-25 03:00,44.055149078,-68.996917725,44.06,-69.00
2021-06-25 04:00,44.055084229,-68.996902466,44.06,-69.00
2021-06-25 05:00,44.054931641,-68.996917725,44.05,-69.00
2021-06-25 06:00,44.054584503,-68.996536255,44.05,-69.00
2021-06-25 07:00,44.054634094,-68.996849060,44.05,-69.00
2021-06-25 08:00,44.054698944,-68.997047424,44.05,-69.00
2021-06-25 09:00,44.054698944,-68.996917725,44.05,-69.00
2021-06-25 10:00,44.054767609,-68.996932983,44.05,-69.00
2021-06-25 11:00,44.054931641,-68.997032166,44.05,-69.00
2021-06-25 12:00,44.055118561,-68.996948242,44.05,-69.00
2021-06-25 13:00,44.055267334,-68.997016907,44.06,-69.00
2021-06-25 14:00,44.055316925,-68.996917725,44.06,-69.00
2021-06-25 15:00,44.055118561,-68.996902466,44.06,-69.00
2021-06-25 16:00,44.055183411,-68.996864319,44.06,-69.00
2021-06-25 17:00,44.054950714,-68.997032166,44.06,-69.00
2021-06-25 18:00,44.054866791,-68.996902466,44.06,-69.00
2021-06-25 19:00,44.054683685,-68.996749878,44.05,-69.00
2021-06-25 20:00,44.054584503,-68.996963501,44.05,-69.00
2021-06-25 21:00,44.054634094,-68.996879578,44.05,-69.00
2021-06-25 22:00,44.054748535,-68.997032166,44.05,-69.00
2021-06-25 23:00,44.054851532,-68.997047424,44.05,-69.00
2021-06-26 00:00,44.055118561,-68.997016907,44.05,-69.00
2021-06-26 01:00,44.055316925,-68.996932983,44.06,-69.00
2021-06-26 02:00,44.055301666,-68.997047424,44.06,-69.00
2021-06-26 03:00,44.055282593,-68.996917725,44.06,-69.00
2021-06-26 04:00,44.055248260,-68.996879578,44.06,-69.00
2021-06-26 05:00,44.055168152,-68.996864319,44.06,-69.00
2021-06-26 06:00,44.054916382,-68.996864319,44.06,-69.00
2021-06-26 07:00,44.054584503,-68.996818542,44.05,-69.00
2021-06-26 08:00,44.054565430,-68.996902466,44.05,-69.00
2021-06-26 09:00,44.054565430,-68.996833801,44.05,-69.00
2021-06-26 10:00,44.054683685,-68.996803284,44.05,-69.00
2021-06-26 11:00,44.054782867,-68.996879578,44.05,-69.00
2021-06-26 12:00,44.055000305,-68.996932983,44.05,-69.00
2021-06-26 13:00,44.055233002,-68.996902466,44.06,-69.00
2021-06-26 14:00,44.055381775,-68.996917725,44.06,-69.00
2021-06-26 15:00,44.055416107,-68.997032166,44.06,-69.00
2021-06-26 16:00,44.055248260,-68.996620178,44.06,-69.00
2021-06-26 17:00,44.055267334,-68.997032166,44.06,-69.00
2021-06-26 18:00,44.055149078,-68.996849060,44.06,-69.00
2021-06-26 19:00,44.054832458,-68.996833801,44.06,-69.00
2021-06-26 20:00,44.054599762,-68.996849060,44.05,-69.00
2021-06-26 21:00,44.054599762,-68.996879578,44.05,-69.00
2021-06-26 22:00,44.054649353,-68.996780396,44.05,-69.00
2021-06-26 23:00,44.054668427,-68.996696472,44.05,-69.00
2021-06-27 00:00,44.055084229,-68.996833801,44.05,-69.00
2021-06-27 01:00,44.055282593,-68.996734619,44.06,-69.00
2021-06-27 02:00,44.055500031,-68.996833801,44.06,-69.00
2021-06-27 03:00,44.055416107,-68.996849060,44.06,-69.00
2021-06-27 04:00,44.055301666,-68.996765137,44.06,-69.00
2021-06-27 05:00,44.055198669,-68.996749878,44.06,-69.00
2021-06-27 06:00,44.055118561,-68.996696472,44.06,-69.00
2021-06-27 07:00,44.054965973,-68.996749878,44.06,-69.00
2021-06-27 08:00,44.054584503,-68.996582031,44.05,-69.00
2021-06-27 09:00,44.054683685,-68.996719360,44.05,-69.00
2021-06-27 10:00,44.054718018,-68.996498108,44.05,-69.00
2021-06-27 11:00,44.054767609,-68.996353149,44.05,-69.00
2021-06-27 12:00,44.055000305,-68.996482849,44.05,-69.00
2021-06-27 13:00,44.055168152,-68.996498108,44.05,-69.00
2021-06-27 14:00,44.055316925,-68.996650696,44.06,-69.00
2021-06-27 15:00,44.055381775,-68.996696472,44.06,-69.00
2021-06-27 16:00,44.055351257,-68.996696472,44.06,-69.00
2021-06-27 17:00,44.055282593,-68.996833801,44.06,-69.00
2021-06-27 18:00,44.055282593,-68.996803284,44.06,-69.00
2021-06-27 19:00,44.055248260,-68.996620178,44.06,-69.00
2021-06-27 20:00,44.055015564,-68.996566772,44.06,-69.00
2021-06-27 21:00,44.054832458,-68.996467590,44.05,-68.98
2021-06-27 22:00,44.054882050,-68.996383667,44.05,-69.00
2021-06-27 23:00,44.055084229,-68.996330261,44.05,-69.00
2021-06-28 00:00,44.055198669,-68.996414185,44.06,-69.00
2021-06-28 01:00,44.055267334,-68.996597290,44.06,-69.00
2021-06-28 02:00,44.055366516,-68.996681213,44.06,-69.00
2021-06-28 03:00,44.055416107,-68.996650696,44.06,-69.00
2021-06-28 04:00,44.055332184,-68.996665955,44.06,-69.00
2021-06-28 05:00,44.055332184,-68.996849060,44.06,-69.00
2021-06-28 06:00,44.055217743,-68.996833801,44.06,-69.00
2021-06-28 07:00,44.055233002,-68.996719360,44.06,-69.00
2021-06-28 08:00,44.055065155,-68.996650696,44.06,-69.00
2021-06-28 09:00,44.054782867,-68.996719360,44.06,-69.00
2021-06-28 10:00,44.054748535,-68.996620178,44.05,-69.00
2021-06-28 11:00,44.054882050,-68.996482849,44.05,-69.00
2021-06-28 12:00,44.054931641,-68.996452332,44.05,-69.00
2021-06-28 13:00,44.055049896,-68.996566772,44.05,-69.00
2021-06-28 14:00,44.055168152,-68.996620178,44.06,-69.00
2021-06-28 15:00,44.055316925,-68.996665955,44.06,-69.00
2021-06-28 16:00,44.055351257,-68.996734619,44.06,-69.00
2021-06-28 17:00,44.055316925,-68.996780396,44.06,-69.00
2021-06-28 18:00,44.055248260,-68.996902466,44.06,-69.00
2021-06-28 19:00,44.055198669,-68.996818542,44.06,-69.00
2021-06-28 20:00,44.055183411,-68.996833801,44.06,-69.00
2021-06-28 21:00,44.054985046,-68.996818542,44.06,-69.00
2021-06-28 22:00,44.054882050,-68.996665955,44.06,-69.00
2021-06-28 23:00,44.054882050,-68.996620178,44.05,-69.00
2021-06-29 00:00,44.055034637,-68.996597290,44.05,-69.00
2021-06-29 01:00,44.055015564,-68.996650696,44.06,-69.00
2021-06-29 02:00,44.055282593,-68.996734619,44.05,-69.00
2021-06-29 03:00,44.055233002,-68.996818542,44.06,-69.00
2021-06-29 04:00,44.055267334,-68.996879578,44.06,-69.00
2021-06-29 05:00,44.055233002,-68.996864319,44.06,-69.00
2021-06-29 06:00,44.055282593,-68.996963501,44.06,-69.00
2021-06-29 07:00,44.055183411,-68.996932983,44.06,-69.00
2021-06-29 08:00,44.055149078,-68.996986389,44.06,-69.00
2021-06-29 09:00,44.055034637,-68.996833801,44.06,-69.00
2021-06-29 10:00,44.054851532,-68.996780396,44.06,-69.00
2021-06-29 11:00,44.054782867,-68.996665955,44.05,-69.00
2021-06-29 12:00,44.054698944,-68.996620178,44.05,-69.00
2021-06-29 13:00,44.054683685,-68.996551514,44.05,-69.00
2021-06-29 14:00,44.054733276,-68.996635437,44.05,-69.00
2021-06-29 15:00,44.054985046,-68.996749878,44.05,-69.00
2021-06-29 16:00,44.055233002,-68.996849060,44.06,-69.00
2021-06-29 17:00,44.055282593,-68.996902466,44.06,-69.00
2021-06-29 18:00,44.055217743,-68.996932983,44.06,-69.00
2021-06-29 19:00,44.055198669,-68.996864319,44.06,-69.00
2021-06-29 20:00,44.055084229,-68.996879578,44.06,-69.00
2021-06-29 21:00,44.055099487,-68.996879578,44.06,-69.00
2021-06-29 22:00,44.054851532,-68.996902466,44.06,-69.00
2021-06-29 23:00,44.054767609,-68.996864319,44.05,-69.00
2021-06-30 00:00,44.054634094,-68.996765137,44.05,-69.00
2021-06-30 01:00,44.054718018,-68.996719360,44.05,-69.00
2021-06-30 02:00,44.054718018,-68.996681213,44.05,-69.00
2021-06-30 03:00,44.054817200,-68.996818542,44.05,-69.00
2021-06-30 04:00,44.055133820,-68.996849060,44.05,-69.00
2021-06-30 05:00,44.055233002,-68.996864319,44.06,-69.00
2021-06-30 06:00,44.055198669,-68.996902466,44.06,-69.00
2021-06-30 07:00,44.055133820,-68.997016907,44.06,-69.00
2021-06-30 08:00,44.055034637,-68.997032166,44.06,-69.00
2021-06-30 09:00,44.054965973,-68.996948242,44.06,-69.00
2021-06-30 10:00,44.054866791,-68.996948242,44.05,-69.00
2021-06-30 11:00,44.054718018,-68.996902466,44.05,-69.00
2021-06-30 12:00,44.054615021,-68.996864319,44.05,-69.00
2021-06-30 13:00,44.054698944,-68.996734619,44.05,-69.00
2021-06-30 14:00,44.054916382,-68.996620178,44.05,-69.00
2021-06-30 15:00,44.054832458,-68.996734619,44.05,-69.00
2021-06-30 16:00,44.055015564,-68.996765137,44.05,-69.00
2021-06-30 17:00,44.055149078,-68.996932983,44.06,-69.00
2021-06-30 18:00,44.055168152,-68.996849060,44.06,-69.00
2021-06-30 19:00,44.055133820,-68.996849060,44.06,-69.00
2021-06-30 20:00,44.054985046,-68.996932983,44.06,-69.00
2021-06-30 21:00,44.054950714,-68.996932983,44.06,-69.00
2021-06-30 22:00,44.054668427,-68.996932983,44.05,-69.00
2021-06-30 23:00,44.054748535,-68.996902466,44.05,-69.00
2021-07-01 00:00,44.054733276,-68.996849060,44.05,-69.00
2021-07-01 01:00,44.054767609,-68.996734619,44.05,-69.00
2021-07-01 02:00,44.054866791,-68.996734619,44.05,-69.00
2021-07-01 03:00,44.054950714,-68.996582031,44.05,-69.00
2021-07-01 04:00,44.055118561,-68.996635437,44.05,-69.00
2021-07-01 05:00,44.055183411,-68.996665955,44.06,-69.00
2021-07-01 06:00,44.055248260,-68.996734619,44.06,-69.00
2021-07-01 07:00,44.055149078,-68.996749878,44.06,-69.00
2021-07-01 08:00,44.055099487,-68.996864319,44.06,-69.00
2021-07-01 09:00,44.055049896,-68.996879578,44.06,-69.00
2021-07-01 10:00,44.054882050,-68.996780396,44.06,-69.00
2021-07-01 11:00,44.054698944,-68.996749878,44.05,-69.00
2021-07-01 12:00,44.054668427,-68.996902466,44.05,-69.00
2021-07-01 13:00,44.054718018,-68.996803284,44.05,-69.00
2021-07-01 14:00,44.054748535,-68.996879578,44.05,-69.00
2021-07-01 15:00,44.054733276,-68.996780396,44.05,-69.00
2021-07-01 16:00,44.054882050,-68.996902466,44.05,-69.00
2021-07-01 17:00,44.055065155,-68.996864319,44.05,-69.00
2021-07-01 18:00,44.055233002,-68.997016907,44.05,-68.98
2021-07-01 19:00,44.055233002,-68.996948242,44.06,-69.00
2021-07-01 20:00,44.055149078,-68.996902466,44.06,-69.00
2021-07-01 21:00,44.055049896,-68.996963501,44.06,-69.00
2021-07-01 22:00,44.055049896,-68.996749878,44.06,-69.00
2021-07-01 23:00,44.054950714,-68.996833801,44.06,-69.00
2021-07-02 00:00,44.054718018,-68.996849060,44.06,-69.00
2021-07-02 01:00,44.054718018,-68.996803284,44.05,-69.00
2021-07-02 02:00,44.054718018,-68.996849060,44.05,-69.00
2021-07-02 03:00,44.054718018,-68.996932983,44.05,-69.00
2021-07-02 04:00,44.054866791,-68.997116089,44.05,-69.00
2021-07-02 05:00,44.054931641,-68.997299194,44.05,-69.00
2021-07-02 06:00,44.055149078,-68.997383118,44.05,-69.00
2021-07-02 07:00,44.055149078,-68.997383118,44.06,-69.00